Location: Aubercourt
(49.8270°N, 2.5483°E)
Time: 14:27:14
(UTC+00:00)

Daily predictions for brighter satellites

Satellite Brightness Start Highest point End
(mag) Time Altitude Azimuth Time Altitude Azimuth Time Altitude Azimuth
Atlas Centaur 2 4.4 20:32:00 10° SSW 20:37:08 18° S 20:42:15 10° SE
SL-16 R/B 2.7 20:32:11 10° NNW 20:37:46 53° NE 20:43:19 10° SE
Cosmos 1763 Rocket 3.8 20:33:57 10° NNW 20:39:12 69° WSW 20:44:21 10° SSE
Cosmos 2369 4.3 20:33:44 10° NW 20:39:22 59° WSW 20:44:58 10° S
ERS-1 Rocket 3.1 20:34:31 10° SSE 20:39:31 73° ENE 20:44:33 10° N
RESURS DK-1 3.5 20:37:26 10° NNW 20:41:09 32° NE 20:44:51 10° ESE
Resurs 01 Rocket 3.9 20:38:04 10° SW 20:41:34 23° W 20:45:07 10° NW
Cosmos 2082 Rocket 2.3 20:37:51 10° SSW 20:43:35 89° WNW 20:49:20 10° NNE
Spot 2 Rocket 3.7 20:39:08 10° SSE 20:44:07 62° ENE 20:49:10 10° N
Cosmos 1933 Rocket 3.6 20:41:12 10° N 20:45:39 89° E 20:50:05 10° S
Cosmos 1470 2.7 20:42:34 10° NNW 20:46:17 78° W 20:49:57 10° S
SPOT 5 3.1 20:44:33 10° S 20:48:48 60° WSW 20:53:10 10° NNW
Cosmos 1300 4.0 20:46:45 10° NNE 20:49:43 24° ENE 20:52:39 10° SE
Cosmos 1908 3.0 20:49:52 10° N 20:53:29 88° ENE 20:57:05 10° S
Cosmos 1346 Rocket 4.1 20:54:54 10° N 20:58:15 27° ENE 21:01:34 10° SE
ATLAS 2AS CENTAUR R/B 3.3 20:53:43 10° NW 21:00:30 53° NE 21:07:00 10° ESE
Cosmos 1674 3.5 20:57:16 10° SSW 21:00:37 46° WNW 21:03:59 10° N
Meteor 1-22 Rocket 4.3 20:56:53 10° N 21:02:28 70° ENE 21:08:15 10° SSE
Cosmos 468 Rocket 4.4 21:01:10 10° NNW 21:06:20 61° WSW 21:11:26 10° S
Ariane Rocket 3.1 21:03:32 10° SSE 21:08:38 89° WSW 21:13:46 10° NNW
Cosmos 1758 3.8 21:05:47 10° N 21:09:32 43° ENE 21:12:54 12° SSE
Cosmos 1842 4.2 21:07:14 10° SSW 21:10:45 44° WNW 21:14:17 10° N
Cosmos 1356 Rocket 4.4 21:09:22 11° SSE 21:12:51 31° E 21:16:35 10° NNE
COSMOS 2406 3.7 21:11:09 10° SW 21:16:51 65° WNW 21:22:36 10° NNE
SPOT 3 Rocket 3.6 21:12:27 10° SSE 21:17:36 83° WSW 21:22:47 10° NNW
Meteor 1-13 Rocket 4.3 21:13:42 10° S 21:19:32 88° W 21:25:16 10° NNE
Cosmos 1707 Rocket 4.3 21:16:10 12° SSE 21:19:57 38° E 21:24:05 10° NNE
SL-27 R/B 3.7 21:19:33 14° ESE 21:20:22 16° E 21:22:09 10° ENE
ARIANE 5 R/B 4.2 21:17:41 10° ESE 21:21:06 23° ENE 21:24:33 10° N
Cosmos 1980 Rocket 4.1 21:17:29 10° NW 21:21:48 23° WSW 21:26:04 10° SSW
Cosmos 2322 Rocket 2.3 21:16:44 10° NNW 21:22:26 71° ENE 21:27:28 13° SE
S3M 4.1 21:16:08 10° N 21:22:34 84° W 21:28:52 10° S
Spot 1 4.5 21:19:34 10° NNE 21:23:55 51° ESE 21:28:30 10° S
Cosmos 1655 Rocket 4.1 21:23:28 10° S 21:29:47 67° E 21:36:09 10° NNE
SJ 16-02 2.7 21:28:54 15° SE 21:31:13 22° E 21:34:33 10° NE
Cosmos 2278 4.2 21:25:40 10° NW 21:31:15 55° WSW 21:36:25 12° S
Landsat 5 3.5 21:27:26 10° NNE 21:31:21 55° E 21:35:02 12° S
Landsat 4 4.5 21:32:54 10° S 21:36:10 40° W 21:39:27 10° NNW
Cosmos 1741 Rocket 4.3 21:32:04 10° S 21:37:08 51° ESE 21:42:16 10° NNE
Tiangong 0.2 21:36:23 10° SW 21:37:11 11° SSW 21:37:28 11° SSW
USA 281 3.6 21:32:45 12° SE 21:38:43 57° NE 21:45:09 10° NNW
Cosmos 2266 Rocket 4.2 21:33:12 10° SSW 21:39:31 78° W 21:45:58 10° N
Cosmos 1400 Rocket 2.8 21:35:48 10° SSW 21:39:42 78° WNW 21:43:34 10° N
COSMOS 2428 4.3 21:35:27 10° NNW 21:40:16 27° NE 21:45:04 10° E
Cosmos 1733 Rocket 3.1 21:36:25 10° N 21:40:50 76° E 21:44:16 17° SSE
MetOp-A 4.1 21:37:25 14° SSE 21:41:52 88° ENE 21:47:10 10° NNW
Okean 3 4.0 21:39:26 17° SSE 21:42:17 41° E 21:46:13 10° NNE
Terra 3.0 21:38:34 10° SSW 21:42:54 37° W 21:47:17 10° NNW
Cosmos 968 Rocket 3.9 21:41:01 14° S 21:45:11 43° ESE 21:50:06 10° NE
Cosmos 1814 Rocket 4.4 21:40:38 10° NNW 21:45:51 58° ENE 21:50:00 16° SE
SL-4 R/B 2.2 21:43:03 10° W 21:46:56 70° N 21:51:05 10° ENE
Cosmos 2228 Rocket 3.1 21:44:42 12° S 21:48:58 83° E 21:53:34 10° NNE
Cosmos 2219 Rocket 2.7 21:45:33 10° NNW 21:51:06 52° NE 21:55:47 15° SE
Cosmos 1315 Rocket 3.8 21:51:04 19° SE 21:53:07 30° E 21:56:38 10° NNE
ATLAS CENTAUR R/B 1.5 21:52:14 18° S 21:54:23 37° ESE 21:57:44 10° NE
Meteor 2-10 Rocket 4.1 21:50:16 10° NNW 21:55:49 60° W 22:00:34 13° S
SeaSat 1 4.4 21:53:03 10° SSW 21:56:39 20° WSW 22:00:16 10° WNW
Cosmos 1953 3.0 21:55:00 10° N 21:58:39 40° ENE 22:00:51 20° SE
Cosmos 1455 2.9 21:58:36 10° N 22:01:52 36° ENE 22:03:41 21° SE
H-2A R/B 3.7 21:59:30 15° ESE 22:02:24 33° ENE 22:06:14 10° N
Cosmos 1242 Rocket 3.9 22:04:20 15° E 22:04:38 16° E 22:06:24 10° NE
USA 234 3.6 21:59:39 10° ENE 22:06:11 72° NNW 22:12:41 10° WSW
Okean 1-7 3.4 22:04:58 21° SSE 22:07:32 48° E 22:11:43 10° NNE
BREEZE-M DEB (TANK) 2.9 22:06:04 10° W 22:08:06 33° SSW 22:09:06 26° SSE
CZ-2C R/B 4.0 22:04:40 10° NNE 22:08:58 49° E 22:11:36 22° SSE
Cosmos 2360 Rocket 2.4 22:08:34 10° NNW 22:14:12 65° WSW 22:18:06 20° S
ALOS 2 4.1 22:11:53 14° ESE 22:14:51 28° ENE 22:18:35 10° N
RESURS DK-1 3.5 22:15:13 10° NW 22:18:51 32° WSW 22:21:10 18° SSW
Cosmos 2333 Rocket 2.4 22:13:33 10° NW 22:19:15 65° WSW 22:23:08 21° S
SL-14 R/B 4.3 22:17:30 10° SW 22:21:05 40° WNW 22:24:43 10° N
SL-16 R/B 3.5 22:16:43 10° NW 22:21:36 30° WSW 22:25:47 13° SSW
Cosmos 1300 4.2 22:21:23 10° NNW 22:24:24 26° W 22:26:54 13° SW
Atlas Centaur 2 4.3 22:20:12 10° SW 22:24:54 16° SSW 22:25:49 16° S
EXPRESS MD2 1.6 22:24:33 10° W 22:26:50 87° S 22:27:54 26° E
OPS 8737 3.9 22:24:39 10° NW 22:27:34 87° SW 22:28:45 34° SE
SL-08 R/B 4.5 22:25:46 20° S 22:30:08 71° E 22:36:14 10° NNE
BREEZE-M DEB (TANK) 3.9 22:14:38 10° W 22:31:42 86° S 22:35:54 10° E
Aureole 3 3.9 22:30:50 17° SSW 22:33:40 57° WNW 22:38:18 10° N
Cosmos 1346 Rocket 4.3 22:30:44 10° NNW 22:34:04 28° W 22:36:35 15° SW
Cosmos 1703 Rocket 3.7 22:32:44 25° SSE 22:35:10 62° E 22:39:35 10° NNE
Cosmos 1833 4.1 22:30:08 12° SSW 22:35:27 85° ESE 22:41:07 10° NNE
DNEPR-1 R/B 4.4 22:29:19 10° NW 22:36:13 81° SW 22:39:56 23° SSE
Cosmos 1862 Rocket 4.5 22:32:47 12° SSW 22:36:40 46° WNW 22:40:57 10° N
Meteor 1-4 Rocket 2.8 22:41:49 23° SW 22:43:19 46° WNW 22:46:15 10° N
Cosmos 839 Rocket 4.2 22:36:50 10° NW 22:43:46 64° WSW 22:47:42 23° SSE
Cosmos 1932 4.5 22:38:31 13° SSW 22:44:15 66° ESE 22:50:29 10° NE
Cosmos 2322 3.8 22:40:01 10° NNW 22:45:44 76° ENE 22:49:29 22° SE
Cosmos 2237 Rocket 3.6 22:41:37 10° NNW 22:46:44 33° NE 22:51:48 10° ESE
BlueWalker 3 3.9 22:50:03 15° ESE 22:50:03 15° ESE 22:51:12 10° E
ATLAS 2AS CENTAUR R/B 3.1 22:44:55 10° NW 22:51:23 47° WSW 22:55:16 23° S
SL-27 R/B 3.9 22:50:57 11° WSW 22:53:07 25° WNW 22:55:33 10° N
Cosmos 2227 Rocket 4.4 22:55:32 10° E 22:55:42 10° E 22:55:53 10° E
ARIANE 5 R/B 3.3 22:54:58 24° SSW 22:57:15 45° W 23:01:26 10° NNW
PSLV R/B 4.1 22:56:33 10° N 23:00:33 68° WNW 23:02:51 24° SSW
Okean 2 4.1 23:00:22 19° SW 23:02:54 46° WNW 23:06:48 10° N
Cosmos 2322 Rocket 3.9 23:01:39 10° NW 23:05:54 22° W 23:09:15 13° SW
Cosmos 1570 Rocket 4.0 23:01:02 10° NNW 23:06:24 77° WSW 23:09:22 27° SSE
PSLV R/B 4.5 23:03:36 10° NNE 23:07:29 33° E 23:08:58 26° SE
Cosmos 1703 4.2 23:06:48 27° SE 23:07:52 32° E 23:11:13 10° NNE
SJ 16-02 2.2 23:05:36 13° SW 23:09:17 45° WNW 23:13:27 10° NNE
Cosmos 1745 Rocket 4.0 23:05:11 23° S 23:09:20 85° E 23:15:44 10° N
Cosmos 1241 Rocket 4.4 23:04:14 10° SW 23:10:20 88° NW 23:16:39 10° NE
COSMOS 2455 3.6 23:08:59 25° SSE 23:11:38 37° ESE 23:17:06 10° NE
Cosmos 2297 Rocket 3.4 23:13:10 21° SE 23:15:24 28° ESE 23:20:06 10° NE
Nadezhda 1 Rocket 4.2 23:11:34 10° NNW 23:17:51 66° W 23:21:42 24° S
GP-B 4.1 23:15:20 10° NNW 23:19:27 39° W 23:22:05 20° SW
Cosmos 1408 1.9 23:22:14 57° S 23:22:45 85° E 23:25:45 10° N
USA 281 4.1 23:19:37 20° SSW 23:23:29 36° WSW 23:29:29 10° NW
COSMOS 2428 2.7 23:19:22 10° NNW 23:25:03 71° WSW 23:28:13 27° SSE
SL-4 R/B 2.0 23:21:52 10° WNW 23:25:56 82° NNE 23:30:14 10° ESE
GEOS 3 Rocket 4.3 23:24:51 10° NE 23:29:37 37° ESE 23:31:28 28° SSE
ATLAS CENTAUR R/B 3.0 23:29:00 10° W 23:32:06 28° NW 23:35:19 10° NNE
Cosmos 1782 Rocket 4.2 23:28:14 10° NNW 23:32:22 45° W 23:34:15 27° SSW
Cosmos 1953 4.3 23:31:30 10° NW 23:34:10 18° W 23:35:58 14° WSW
Cosmos 2219 Rocket 3.3 23:29:54 10° NW 23:34:48 31° WSW 23:37:28 21° SSW
Cosmos 1455 4.1 23:33:43 10° NW 23:36:02 17° W 23:37:24 14° WSW
Cosmos 1242 Rocket 3.8 23:35:32 19° WSW 23:36:30 23° WNW 23:38:49 10° NNW
Cosmos 2208 Rocket 4.2 23:32:00 10° NNW 23:37:06 57° WSW 23:39:34 29° S
H-2A R/B 3.8 23:35:29 22° SW 23:37:18 31° W 23:41:09 10° NNW
Cosmos 1892 4.0 23:38:13 22° ESE 23:39:11 24° E 23:42:05 10° NE
Cosmos 158 Rocket 4.2 23:34:21 10° NNW 23:39:36 59° WSW 23:42:07 29° S
Cosmos 371 Rocket 3.4 23:38:59 31° S 23:41:06 59° ESE 23:45:51 10° NNE
BREEZE-M DEB (TANK) 4.0 23:38:58 10° W 23:42:34 86° S 23:54:52 10° E
NOSS 8 (E) 4.4 23:45:43 40° SSW 23:46:51 68° SE 23:49:57 10° NE
Cosmos 773 Rocket 3.9 23:41:50 10° NNW 23:47:00 88° WSW 23:49:51 27° SSE
Cosmos 2151 Rocket 3.9 23:43:31 10° N 23:47:54 59° ENE 23:50:04 28° SSE
USA 234 4.3 23:42:33 10° ENE 23:48:47 48° N 23:55:00 10° WNW
ALOS 2 3.5 23:49:16 26° SW 23:51:03 38° W 23:55:10 10° NNW
GENESIS II 4.1 23:49:40 29° SW 23:51:25 76° NW 23:55:04 10° NE
Cosmos 2263 Rocket 4.4 23:51:45 10° ESE 23:53:21 11° E 23:54:57 10° ENE
Cosmos 1503 Rocket 4.2 23:51:55 29° S 23:54:33 60° ESE 23:59:47 10° NNE
Okean 2 Rocket 3.3 23:50:48 10° N 23:55:15 65° ENE 23:57:29 28° SSE
Cosmos 2360 Rocket 4.4 23:55:42 10° W 23:57:03 11° W 23:58:24 10° WSW
